Flag for U.S.A. Weather past 2 weeks in Sheboygan, Wisconsin, U.S.A.

Now
29 °F

Sunny.


Feels Like: 20 °F
Forecast: 22 / 30 °F
Wind: 10 mph from Northwest

Location: Sheboygan County Memorial Airport

Current Time: Dec 28, 2014 at 2:18:12 PM

Latest Report: Dec 28, 2014 at 1:53 PM


Visibility: 10 mi

Pressure: 30.15 "Hg

Humidity: 64%

Dew point: 18 °F

Location of SheboyganLocation

Historic Weather in Sheboygan — Graph

°F

Sheboygan temperature yesterday

Maximum temperature yesterday: 46 °F (at 9:53 AM)
Minimum temperature yesterday: 28 °F (at 11:53 PM)
Average temperature yesterday: 36 °F

Past Weeks' High & Low Weather Summary

 TemperatureHumidityPressure
High48 °F (Dec 14, 10:53 AM)100% (Dec 15, 2:53 AM)30.34 "Hg (Dec 15, 2:53 AM)
Low20 °F (Dec 18, 9:53 PM)62% (Dec 17, 10:53 AM)29.48 "Hg (Dec 24, 2:53 PM)
Average34 °F84%29.99 "Hg
* Reported Dec 13 12:53 PM — Dec 28 12:53 PM, Sheboygan, Weather by CustomWeather, © 2014

Note: Actual official high and low records may vary slightly from our data, if they occured in-between our weather recording intervals... More about our weather records

Advertising

Sheboygan weather history for previous 24 hours

 ConditionsComfort  
Time TempWeatherWind HumidityBarometerVisibility
12:53 PM
Dec 28
29 °FSunny.8 mph64%30.14 "Hg10 mi
11:53 AM28 °FSunny.12 mph66%30.15 "Hg10 mi
10:53 AM26 °FSunny.10 mph71%30.16 "Hg10 mi
9:53 AM24 °FSunny.12 mph75%30.16 "Hg10 mi
8:53 AM23 °FSunny.13 mph74%30.16 "Hg10 mi
7:53 AM21 °FSunny.13 mph78%30.13 "Hg10 mi
6:53 AM21 °FClear.12 mph78%30.12 "Hg10 mi
5:53 AM22 °FClear.9 mph78%30.12 "Hg10 mi
4:53 AM22 °FClear.10 mph82%30.11 "Hg10 mi
3:53 AM23 °FClear.10 mph81%30.10 "Hg10 mi
2:53 AM24 °FClear.10 mph75%30.11 "Hg10 mi
1:53 AM24 °FClear.12 mph77%30.10 "Hg10 mi
12:53 AM26 °FClear.12 mph71%30.08 "Hg10 mi
11:53 PM
Dec 27
28 °FOvercast.16 mph72%30.09 "Hg10 mi
10:53 PM29 °FOvercast.16 mph72%30.09 "Hg10 mi
9:53 PM29 °FOvercast.14 mph75%30.08 "Hg10 mi
8:53 PM31 °FOvercast.13 mph79%30.07 "Hg10 mi
7:53 PM32 °FMostly cloudy.13 mph82%30.06 "Hg10 mi
6:53 PM32 °FOvercast.14 mph88%30.04 "Hg10 mi
5:53 PM34 °FOvercast.10 mph82%30.02 "Hg10 mi
4:53 PM34 °FOvercast.16 mph82%29.99 "Hg10 mi
3:53 PM35 °FOvercast.18 mph78%29.96 "Hg10 mi
2:53 PM36 °FOvercast.16 mph75%29.92 "Hg10 mi
Weather by CustomWeather, © 2014

See weather overviewHow to use our weather pages